When you browse on this site, cookies collect data to enhance your experience and personalize the content and advertising you see.
Visit our Privacy Policy to learn more. By continuing to use the site, you agree to this use of cookies and data.
  • In Schweiz
  • Länderverzeichnis
  • Für 7 Tage
  • Wassertemperatur
  • Wetterkarte
  • Widgets
  • user-avatar
    Anmelden

    Stündliche Wetter Puate

    Heute, 21 November, Donnerstag

    Zeit Temperatur Niederschläge Wind Luftdruck Luftfeuchtigkeit
    00:00 +3°C° 0 mm 3 m/S 744 mmHg 92%
    01:00 +3°C° 0 mm 4 m/S 744 mmHg 92%
    02:00 +3°C° 0 mm 4 m/S 743 mmHg 91%
    03:00 +3°C° 0 mm 4 m/S 743 mmHg 91%
    04:00 +4°C° 0.1 mm 4 m/S 743 mmHg 90%
    05:00 +5°C° 0.1 mm 4 m/S 743 mmHg 88%
    06:00 +5°C° 0 mm 3 m/S 743 mmHg 86%
    07:00 +6°C° 0 mm 4 m/S 743 mmHg 84%
    08:00 +6°C° 0 mm 4 m/S 743 mmHg 82%
    09:00 +6°C° 0 mm 5 m/S 743 mmHg 81%
    10:00 +6°C° 0.2 mm 5 m/S 743 mmHg 81%
    11:00 +5°C° 0.2 mm 6 m/S 742 mmHg 82%
    12:00 +7°C° 0 mm 6 m/S 742 mmHg 83%
    13:00 +7°C° 0.3 mm 6 m/S 742 mmHg 84%
    14:00 +7°C° 0.3 mm 6 m/S 742 mmHg 86%
    15:00 +7°C° 0.3 mm 6 m/S 741 mmHg 87%
    16:00 +7°C° 0.2 mm 6 m/S 742 mmHg 88%
    17:00 +7°C° 0.2 mm 6 m/S 742 mmHg 88%
    18:00 +6°C° 0.2 mm 7 m/S 742 mmHg 88%
    19:00 +5°C° 0.1 mm 6 m/S 742 mmHg 90%
    20:00 +5°C° 0.1 mm 6 m/S 742 mmHg 91%
    21:00 +5°C° 0.1 mm 6 m/S 742 mmHg 93%
    22:00 +5°C° 0.2 mm 6 m/S 742 mmHg 93%
    23:00 +5°C° 0.2 mm 6 m/S 742 mmHg 92%

    Morgen, 22 November, Freitag

    Zeit Temperatur Niederschläge Wind Luftdruck Luftfeuchtigkeit
    00:00 +4°C° 0.2 mm 6 m/S 742 mmHg 92%
    01:00 +4°C° 0 mm 6 m/S 742 mmHg 91%
    02:00 +5°C° 0 mm 5 m/S 742 mmHg 91%
    03:00 +5°C° 0 mm 5 m/S 741 mmHg 90%
    04:00 +5°C° 0 mm 5 m/S 741 mmHg 90%
    05:00 +3°C° 0 mm 5 m/S 741 mmHg 90%
    06:00 +4°C° 0 mm 4 m/S 741 mmHg 90%
    07:00 +5°C° 0 mm 5 m/S 740 mmHg 84%
    08:00 +5°C° 0 mm 6 m/S 740 mmHg 78%
    09:00 +7°C° 0 mm 6 m/S 739 mmHg 73%
    10:00 +8°C° 0 mm 7 m/S 738 mmHg 70%
    11:00 +9°C° 0 mm 7 m/S 737 mmHg 67%
    12:00 +11°C° 0 mm 8 m/S 736 mmHg 64%
    13:00 +11°C° 0 mm 7 m/S 735 mmHg 66%
    14:00 +10°C° 0 mm 6 m/S 734 mmHg 68%
    15:00 +10°C° 0 mm 5 m/S 733 mmHg 70%
    16:00 +10°C° 0.1 mm 6 m/S 732 mmHg 73%
    17:00 +10°C° 0.1 mm 6 m/S 732 mmHg 75%
    18:00 +10°C° 0.1 mm 6 m/S 731 mmHg 77%
    19:00 +10°C° 0.3 mm 6 m/S 731 mmHg 79%
    20:00 +10°C° 0.3 mm 7 m/S 731 mmHg 81%
    21:00 +10°C° 0.3 mm 7 m/S 731 mmHg 83%
    22:00 +10°C° 0.3 mm 7 m/S 730 mmHg 84%
    23:00 +10°C° 0.3 mm 7 m/S 730 mmHg 85%

    übermorgen, 23 November, Samstag

    Zeit Temperatur Niederschläge Wind Luftdruck Luftfeuchtigkeit
    00:00 +10°C° 0.3 mm 7 m/S 730 mmHg 86%
    01:00 +10°C° 0.1 mm 5 m/S 730 mmHg 87%
    02:00 +10°C° 0.1 mm 4 m/S 730 mmHg 89%
    03:00 +10°C° 0.1 mm 3 m/S 729 mmHg 91%
    04:00 +9°C° 0.1 mm 3 m/S 729 mmHg 92%
    05:00 +9°C° 0.1 mm 3 m/S 729 mmHg 93%
    06:00 +8°C° 0.1 mm 3 m/S 730 mmHg 94%
    07:00 +9°C° 0 mm 3 m/S 730 mmHg 92%
    08:00 +10°C° 0 mm 3 m/S 731 mmHg 90%
    09:00 +10°C° 0 mm 4 m/S 731 mmHg 88%
    10:00 +10°C° 0 mm 4 m/S 732 mmHg 88%
    11:00 +10°C° 0 mm 3 m/S 732 mmHg 87%
    12:00 +11°C° 0 mm 3 m/S 733 mmHg 87%
    13:00 +10°C° 0.3 mm 4 m/S 734 mmHg 88%
    14:00 +10°C° 0.3 mm 4 m/S 734 mmHg 89%
    15:00 +10°C° 0.3 mm 4 m/S 735 mmHg 91%
    16:00 +10°C° 0.3 mm 4 m/S 736 mmHg 89%
    17:00 +8°C° 0.3 mm 5 m/S 737 mmHg 88%
    18:00 +8°C° 0.3 mm 5 m/S 738 mmHg 87%
    19:00 +8°C° 0 mm 5 m/S 739 mmHg 87%
    20:00 +7°C° 0 mm 4 m/S 740 mmHg 88%
    21:00 +7°C° 0 mm 4 m/S 741 mmHg 88%
    22:00 +7°C° 0 mm 3 m/S 741 mmHg 88%
    23:00 +7°C° 0 mm 3 m/S 742 mmHg 87%

    24 November, Sonntag

    Zeit Temperatur Niederschläge Wind Luftdruck Luftfeuchtigkeit
    00:00 +7°C° 0 mm 3 m/S 743 mmHg 87%
    01:00 +5°C° 0 mm 3 m/S 743 mmHg 88%
    02:00 +5°C° 0 mm 3 m/S 744 mmHg 89%
    03:00 +4°C° 0 mm 3 m/S 744 mmHg 90%
    04:00 +4°C° 0 mm 3 m/S 745 mmHg 90%
    05:00 +4°C° 0 mm 3 m/S 745 mmHg 91%
    06:00 +4°C° 0 mm 3 m/S 746 mmHg 91%
    07:00 +5°C° 0 mm 3 m/S 747 mmHg 90%
    08:00 +6°C° 0 mm 4 m/S 747 mmHg 89%
    09:00 +7°C° 0 mm 4 m/S 748 mmHg 87%
    10:00 +8°C° 0 mm 4 m/S 748 mmHg 83%
    11:00 +10°C° 0 mm 4 m/S 749 mmHg 79%
    12:00 +12°C° 0 mm 4 m/S 749 mmHg 75%
    13:00 +12°C° 0 mm 4 m/S 749 mmHg 77%
    14:00 +11°C° 0 mm 3 m/S 749 mmHg 79%
    15:00 +11°C° 0 mm 3 m/S 749 mmHg 81%
    16:00 +10°C° 0 mm 3 m/S 749 mmHg 85%
    17:00 +10°C° 0 mm 3 m/S 750 mmHg 88%
    18:00 +9°C° 0 mm 3 m/S 750 mmHg 92%
    19:00 +8°C° 0 mm 4 m/S 750 mmHg 92%
    20:00 +7°C° 0 mm 4 m/S 750 mmHg 92%
    21:00 +7°C° 0 mm 5 m/S 750 mmHg 92%
    22:00 +7°C° 0 mm 5 m/S 750 mmHg 90%
    23:00 +7°C° 0 mm 6 m/S 750 mmHg 89%

    25 November, Montag

    Zeit Temperatur Niederschläge Wind Luftdruck Luftfeuchtigkeit
    00:00 +8°C° 0 mm 6 m/S 750 mmHg 88%
    01:00 +8°C° 0.2 mm 7 m/S 749 mmHg 87%
    02:00 +8°C° 0.2 mm 7 m/S 749 mmHg 87%
    03:00 +8°C° 0.2 mm 7 m/S 749 mmHg 86%
    04:00 +8°C° 0.2 mm 7 m/S 749 mmHg 86%
    05:00 +8°C° 0.2 mm 7 m/S 749 mmHg 86%
    06:00 +8°C° 0.2 mm 7 m/S 749 mmHg 86%
    07:00 +9°C° 0 mm 7 m/S 749 mmHg 86%
    08:00 +9°C° 0 mm 8 m/S 749 mmHg 86%
    09:00 +9°C° 0 mm 8 m/S 749 mmHg 87%
    10:00 +10°C° 0.1 mm 8 m/S 749 mmHg 86%
    11:00 +10°C° 0.1 mm 8 m/S 749 mmHg 85%
    12:00 +11°C° 0.1 mm 8 m/S 749 mmHg 84%
    13:00 +11°C° 0.1 mm 8 m/S 749 mmHg 86%
    14:00 +11°C° 0.1 mm 7 m/S 749 mmHg 88%
    15:00 +11°C° 0.1 mm 7 m/S 749 mmHg 90%
    16:00 +11°C° 0.1 mm 6 m/S 749 mmHg 91%
    17:00 +12°C° 0.1 mm 5 m/S 749 mmHg 92%
    18:00 +12°C° 0.1 mm 5 m/S 749 mmHg 93%
    19:00 +12°C° 0.1 mm 5 m/S 750 mmHg 93%
    20:00 +12°C° 0.1 mm 5 m/S 750 mmHg 93%
    21:00 +12°C° 0.1 mm 5 m/S 750 mmHg 93%
    22:00 +12°C° 0 mm 5 m/S 750 mmHg 94%
    23:00 +12°C° 0 mm 4 m/S 750 mmHg 95%

    26 November, Dienstag

    Zeit Temperatur Niederschläge Wind Luftdruck Luftfeuchtigkeit
    00:00 +11°C° 0 mm 4 m/S 750 mmHg 96%
    01:00 +12°C° 0.1 mm 4 m/S 749 mmHg 96%
    02:00 +12°C° 0.1 mm 4 m/S 749 mmHg 96%
    03:00 +12°C° 0.1 mm 4 m/S 749 mmHg 96%
    04:00 +13°C° 0.4 mm 5 m/S 748 mmHg 96%
    05:00 +13°C° 0.4 mm 5 m/S 748 mmHg 96%
    06:00 +14°C° 0.4 mm 6 m/S 748 mmHg 96%
    07:00 +14°C° 0.5 mm 6 m/S 747 mmHg 95%
    08:00 +14°C° 0.5 mm 6 m/S 747 mmHg 94%
    09:00 +12°C° 0.5 mm 7 m/S 747 mmHg 93%
    10:00 +13°C° 0.2 mm 8 m/S 747 mmHg 91%
    11:00 +13°C° 0.2 mm 8 m/S 746 mmHg 88%
    12:00 +15°C° 0.2 mm 9 m/S 746 mmHg 86%
    13:00 +15°C° 0.2 mm 9 m/S 746 mmHg 86%
    14:00 +15°C° 0.2 mm 8 m/S 746 mmHg 87%
    15:00 +15°C° 0.2 mm 7 m/S 745 mmHg 87%
    16:00 +14°C° 0.1 mm 7 m/S 745 mmHg 89%
    17:00 +14°C° 0.1 mm 6 m/S 745 mmHg 90%
    18:00 +14°C° 0.1 mm 6 m/S 745 mmHg 92%
    19:00 +14°C° 0.3 mm 7 m/S 744 mmHg 91%
    20:00 +14°C° 0.3 mm 7 m/S 743 mmHg 90%
    21:00 +13°C° 0.3 mm 8 m/S 743 mmHg 89%
    22:00 +13°C° 0.7 mm 8 m/S 743 mmHg 87%
    23:00 +13°C° 0.7 mm 9 m/S 742 mmHg 84%
    Mehr zeigen